Location: Trout Lake
(45.9980°N, 121.5270°W)
Time: 21:02:08
(UTC-08:00)

Cosmos 1954 Rocket - Pass Details

Date: 06 December 2023
Orbit: 751 x 778 km, 74.0° (Epoch: 22 February)

Event Time Altitude Azimuth Distance (km) Brightness Sun altitude
Rises 18:45:55 0° 335° (NNW) 3,250 7.5 -24.3°
Reaches altitude 10° 18:48:20 10° 332° (NNW) 2,314 6.7 -24.7°
Maximum altitude 18:53:30 61° 253° (WSW) 866 4.4 -25.6°
Drops below altitude 10° 18:58:35 10° 174° (S) 2,280 6.4 -26.5°
Sets 19:00:57 0° 171° (S) 3,197 7.2 -26.9°
